Location: Conflandey
(47.7287°N, 6.0456°E)
Time: 19:45:26
(UTC+00:00)

Cosmos 1140 Rocket - Pass Details

Date: 24 October 2021
Orbit: 743 x 768 km, 74.1° (Epoch: 05 December)

Event Time Altitude Azimuth Distance (km) Brightness Sun altitude
Rises 18:11:53 0° 341° (NNW) 3,218 7.0 -17.6°
Reaches altitude 10° 18:14:22 10° 348° (NNW) 2,293 6.1 -18.0°
Maximum altitude 18:19:20 44° 61° (ENE) 1,051 3.8 -18.8°
Enters shadow 18:20:37 37° 97° (E) 1,176 3.9 -19.0°
